Location: Ajisawe
(8.4333°N, 4.3833°E)
Time: 23:58:47
(UTC+00:00)

S-56A Canister/Altair - Pass Details

Date: 20 April 2021
Orbit: 631 x 2501 km, 38.9° (Epoch: 15 May)

Event Time Altitude Azimuth Distance (km) Brightness Sun altitude
Rises 21:12:35 0° 251° (WSW) 5,729 12.4 -47.9°
Reaches altitude 10° 21:17:14 10° 259° (W) 4,461 11.7 -48.9°
Enters shadow 21:26:49 33° 314° (NW) 2,397 10.2 -50.9°
